Wind_Speed
13 13 13 13 13 13 12 11 10 10 9 8 7 6 5 5 4 4 4 5 5 6 7 7 6 6 6 5 5 5 5 6 6 6 6 7 8 9 10 11 11 12 12
15 15 15 15 15 14 14 13 13 12 12 11 10 9 9 7 7 6 6 6 6 7 7 7 7 7 7 7 7 7 7 8 8 9 9 9 10 10 11 12 13 13 14
18 17 17 17 17 16 16 15 15 14 14 14 13 12 11 11 10 9 8 8 8 8 8 8 8 8 7 8 8 8 9 9 10 11 11 12 13 13 13 14 14 15 16
21 20 20 19 18 18 18 17 17 17 17 16 16 15 14 14 13 12 11 11 10 10 9 9 9 9 9 9 9 10 10 11 12 12 13 14 15 16 16 16 17 17 17
24 23 22 21 20 20 20 20 20 19 19 19 18 18 17 16 16 15 14 13 12 12 12 12 11 11 11 11 11 11 12 12 13 14 15 16 17 18 19 19 19 19 19
26 26 25 24 24 23 23 23 22 22 21 21 20 20 19 19 18 18 17 17 16 15 15 14 14 13 13 13 13 13 14 14 15 16 16 17 18 19 20 21 22 22 22
28 27 27 27 27 26 26 25 24 23 22 22 22 22 22 21 21 20 20 20 19 18 17 16 16 16 15 15 15 15 15 15 16 17 18 18 19 20 21 22 23 24 24
30 30 29 30 30 29 28 27 27 25 24 23 23 23 23 23 24 23 23 23 22 21 20 19 18 18 18 17 16 16 16 17 17 18 19 20 20 21 22 23 24 24 25
32 31 30 30 30 31 30 30 30 29 27 26 25 25 24 24 25 25 25 26 25 24 23 22 21 20 20 19 18 18 18 18 18 19 20 20 21 22 22 23 24 25 26
34 33 30 30 30 29 30 31 31 31 29 28 28 27 27 27 26 26 27 27 28 28 26 24 23 23 22 21 21 20 20 19 20 20 20 21 22 22 23 24 25 25 26
35 34 32 31 30 29 30 28 29 30 31 31 30 30 29 29 28 28 29 29 29 29 29 27 26 25 24 24 23 22 21 21 21 21 22 22 22 23 24 25 25 26 27
35 34 33 31 30 30 30 29 28 28 29 31 31 31 31 31 30 31 30 31 31 31 30 30 29 28 27 26 25 25 24 23 23 23 23 23 23 24 25 26 26 27 27
32 32 32 31 30 30 29 29 30 29 29 30 31 32 33 33 33 33 33 33 33 32 32 31 31 30 29 28 27 27 26 25 24 24 24 24 25 25 25 26 26 27 27
30 31 32 32 32 31 30 31 30 29 30 30 30 30 31 32 32 33 34 34 35 34 33 32 32 31 31 30 29 28 28 27 26 25 25 25 25 26 26 26 26 27 27
30 31 32 33 33 32 31 32 32 32 31 31 31 31 31 33 32 32 32 33 34 35 35 34 34 33 32 31 30 29 29 28 27 26 25 25 26 26 27 27 27 27 27
28 30 31 32 31 31 31 31 31 31 33 33 32 31 32 32 32 32 32 33 33 33 34 33 33 33 32 30 29 29 28 27 26 26 25 25 25 25 26 27 27 27 27
24 25 26 27 27 28 28 29 29 29 30 30 30 30 30 30 31 32 33 33 33 33 33 32 31 31 30 29 29 28 27 26 26 26 26 26 26 26 26 27 27 27 28
18 19 20 21 22 22 23 23 24 25 25 25 26 27 28 29 31 31 30 30 30 29 30 30 30 29 28 27 26 26 25 25 25 25 26 26 26 26 26 26 27 27 27
12 13 14 15 16 17 17 17 18 19 20 21 23 24 24 25 26 26 26 26 26 26 27 27 26 26 25 24 24 23 23 24 24 25 25 26 26 25 26 26 27 27 26
7 8 9 10 10 10 12 13 15 16 17 19 20 20 21 21 22 21 22 22 22 22 23 23 23 23 22 22 22 22 23 23 24 24 24 25 26 25 25 25 26 26 26
6 7 7 8 9 9 10 11 12 13 14 15 16 16 17 18 18 18 18 18 18 19 19 19 19 19 19 20 20 21 22 22 23 23 23 24 24 24 24 24 25 25 25
8 8 7 8 9 10 10 11 11 12 12 13 14 14 15 16 16 17 18 18 18 18 18 18 18 18 18 19 19 20 20 21 21 22 22 22 23 23 24 24 24 24 25
11 10 9 9 10 10 11 11 11 12 13 14 15 15 16 16 16 17 17 17 17 17 17 17 17 17 18 18 18 19 19 19 20 20 20 21 21 22 23 23 23 22 23
14 13 12 11 10 10 11 11 12 12 13 13 14 15 15 15 14 15 15 15 15 15 15 15 15 15 15 16 16 16 17 17 17 18 18 19 20 20 21 21 21 22 22
16 15 14 13 12 11 10 10 11 12 12 12 13 13 14 14 14 13 13 13 14 14 14 14 14 14 14 14 14 15 15 15 16 16 16 17 18 18 18 19 19 20 20
19 18 17 15 14 12 10 9 9 9 10 10 10 10 11 12 12 12 12 12 13 13 13 13 13 12 12 12 12 13 13 13 14 14 14 15 15 16 16 17 17 18 18
Wind_Direction
278 280 283 284 284 282 278 274 271 271 271 271 273 272 271 269 263 258 255 255 258 261 263 264 261 258 258 259 260 261 263 265 269 272 270 266 263 260 257 255 255 255 252
273 275 277 279 280 279 277 275 273 268 266 266 267 266 264 264 261 260 256 254 255 257 257 259 262 264 263 263 265 266 265 266 266 268 269 269 267 266 264 262 260 259 258
267 271 274 275 276 276 275 274 272 268 265 265 265 262 259 259 260 260 258 257 254 253 253 255 259 262 264 265 267 269 270 270 270 269 269 270 270 269 268 267 266 264 262
265 267 269 270 272 274 275 273 271 268 265 264 264 261 256 256 257 258 259 258 256 255 256 257 257 260 263 264 266 268 270 272 272 271 271 271 271 270 270 269 267 266 264
264 266 266 266 267 270 271 271 270 267 264 263 263 261 258 256 257 257 258 257 255 254 257 259 260 261 262 263 266 268 270 272 272 272 272 272 272 272 271 269 268 266 265
263 264 265 266 265 266 267 267 268 266 264 262 260 260 260 257 256 256 256 256 255 256 256 258 260 262 264 265 266 268 270 272 272 272 272 273 274 273 272 270 268 267 266
262 263 266 267 263 262 263 264 263 263 263 262 259 259 258 258 256 255 255 255 256 257 258 260 262 263 264 266 268 269 269 271 272 272 272 273 274 273 272 271 270 268 266
264 264 265 266 264 260 259 260 259 259 260 261 259 259 258 257 256 255 255 256 256 257 258 260 262 264 265 266 269 269 270 271 273 272 273 273 274 274 273 273 271 269 267
264 268 266 269 266 261 259 257 254 254 256 258 258 259 259 258 256 255 255 256 257 257 258 259 261 263 264 266 268 269 271 273 274 273 273 274 274 274 273 273 272 271 269
265 266 269 269 264 263 263 260 255 251 251 254 256 256 258 258 257 256 256 257 257 258 258 259 261 261 262 264 267 268 270 272 274 274 273 274 275 275 274 273 272 271 270
264 267 268 270 269 266 266 266 259 254 251 250 251 254 255 256 257 259 258 257 257 257 258 258 259 260 261 264 265 267 270 271 272 273 273 275 275 275 274 273 272 271 270
263 264 265 268 268 268 270 268 265 262 256 251 250 251 252 253 254 257 258 257 256 256 257 256 258 259 261 263 264 267 270 271 271 272 273 274 275 275 275 274 273 271 270
260 260 264 265 268 269 269 266 267 263 261 255 251 251 252 252 253 255 256 256 256 255 254 254 255 257 259 260 264 267 269 270 271 272 273 274 275 276 276 274 273 271 270
259 259 264 268 270 270 269 267 267 265 261 258 254 253 254 254 255 256 256 256 255 254 253 251 252 255 257 259 262 265 267 269 270 271 273 275 275 274 274 273 273 271 269
261 263 266 269 270 270 269 267 266 266 261 258 257 256 257 255 256 257 257 257 256 254 252 251 252 253 255 257 259 262 264 267 269 270 272 274 275 275 274 273 272 270 269
264 266 267 269 268 270 269 267 264 262 259 259 256 255 255 254 254 254 256 255 255 253 252 250 250 251 251 252 256 258 261 264 266 269 271 273 274 275 274 274 272 269 269
266 267 267 269 270 270 269 266 264 261 258 257 255 255 255 255 255 255 254 255 254 251 250 249 249 250 249 251 255 256 260 263 266 269 271 272 273 274 274 274 272 270 269
269 270 270 271 271 270 268 265 261 256 255 256 256 256 255 254 255 253 253 252 252 250 250 252 252 251 250 250 252 256 260 264 267 270 272 274 274 273 273 273 271 271 269
275 276 275 274 271 268 266 262 259 257 255 255 256 255 254 254 253 252 251 251 252 253 253 254 253 251 250 250 252 256 260 263 267 271 273 274 274 273 273 272 271 271 269
300 294 288 282 277 273 266 261 261 261 260 259 257 254 253 253 252 252 252 253 254 253 252 252 250 248 249 251 254 258 261 264 268 271 273 274 274 273 273 273 272 271 270
333 318 305 297 290 284 275 269 266 266 261 257 255 254 252 252 252 252 253 253 253 252 252 252 251 251 251 253 256 259 262 265 268 271 273 274 274 273 273 273 273 272 270
352 336 318 310 304 298 293 283 276 272 270 266 263 260 258 254 253 252 251 252 253 254 255 254 253 253 254 256 258 260 263 264 268 270 273 275 273 273 273 273 275 274 273
5 354 340 327 315 305 297 290 283 279 275 273 271 266 261 258 256 254 253 253 252 253 253 253 252 253 254 256 258 261 263 265 268 271 272 274 274 273 273 274 273 274 274
16 9 358 346 332 321 312 302 292 287 283 279 274 268 263 260 256 252 251 250 250 250 250 250 250 250 252 254 257 260 263 266 268 271 272 273 274 276 274 275 274 274 274
21 15 6 357 347 335 323 313 305 299 292 286 279 270 261 256 253 253 252 251 246 246 247 247 249 251 253 255 257 260 263 266 269 272 274 276 277 277 277 279 280 278 276
23 19 14 7 358 350 342 334 325 317 308 294 281 269 257 247 242 244 245 245 246 245 244 243 246 250 253 254 257 261 263 266 269 274 277 279 280 280 282 283 284 285 285
Height
5898 5898 5898 5898 5898 5899 5899 5899 5899 5900 5900 5900 5901 5901 5902 5902 5902 5902 5903 5903 5904 5904 5905 5905 5906 5906 5907 5907 5908 5908 5909 5909 5910 5910 5911 5911 5912 5912 5913 5913 5914 5915 5915
5894 5894 5894 5894 5895 5895 5895 5896 5896 5897 5897 5898 5898 5899 5899 5900 5900 5901 5901 5902 5902 5903 5903 5904 5904 5905 5905 5905 5906 5906 5907 5907 5908 5908 5909 5909 5910 5910 5911 5911 5911 5912 5913
5889 5890 5890 5890 5891 5891 5891 5892 5892 5893 5894 5894 5895 5895 5896 5897 5898 5898 5899 5899 5900 5901 5901 5902 5902 5902 5903 5903 5904 5904 5904 5905 5905 5906 5906 5907 5907 5908 5908 5908 5909 5909 5910
5884 5884 5885 5886 5886 5886 5887 5887 5888 5889 5890 5890 5891 5892 5893 5893 5894 5895 5896 5896 5897 5898 5899 5899 5899 5900 5900 5901 5901 5901 5902 5902 5902 5903 5903 5903 5904 5904 5905 5905 5905 5906 5906
5878 5879 5879 5880 5881 5881 5882 5882 5883 5884 5885 5886 5886 5887 5888 5889 5890 5891 5892 5893 5894 5895 5895 5896 5896 5897 5897 5897 5898 5898 5898 5899 5899 5899 5899 5900 5900 5900 5901 5901 5901 5902 5902
5872 5873 5873 5874 5874 5875 5876 5877 5878 5878 5879 5880 5881 5882 5883 5884 5885 5886 5888 5889 5890 5890 5891 5892 5892 5893 5893 5893 5894 5894 5894 5895 5895 5895 5895 5896 5896 5896 5896 5896 5897 5897 5898
5866 5867 5867 5868 5868 5869 5870 5871 5872 5873 5873 5875 5876 5877 5877 5878 5879 5881 5882 5884 5885 5886 5887 5887 5888 5888 5889 5889 5889 5890 5890 5890 5890 5890 5891 5891 5891 5891 5891 5891 5892 5892 5892
5859 5859 5861 5861 5861 5862 5863 5864 5865 5866 5867 5868 5870 5871 5872 5874 5874 5875 5876 5878 5879 5880 5881 5882 5883 5883 5884 5884 5884 5885 5885 5885 5885 5885 5886 5886 5886 5886 5886 5886 5886 5886 5887
5852 5853 5854 5854 5854 5855 5856 5857 5858 5860 5861 5862 5863 5865 5866 5867 5868 5869 5870 5871 5872 5874 5875 5876 5877 5877 5878 5878 5879 5879 5880 5880 5880 5880 5880 5880 5880 5880 5880 5880 5880 5881 5881
5845 5846 5847 5848 5847 5848 5849 5849 5851 5852 5854 5855 5856 5858 5859 5860 5861 5863 5864 5865 5866 5867 5868 5869 5870 5871 5872 5872 5873 5873 5874 5874 5874 5874 5874 5874 5874 5874 5874 5874 5874 5874 5875
5837 5839 5840 5840 5841 5841 5842 5842 5844 5845 5846 5847 5849 5850 5851 5853 5854 5855 5856 5858 5859 5860 5861 5862 5863 5864 5865 5865 5866 5867 5868 5868 5868 5868 5868 5868 5868 5868 5868 5868 5868 5868 5868
5829 5831 5832 5832 5833 5834 5834 5835 5836 5837 5838 5839 5841 5842 5844 5845 5846 5847 5849 5850 5851 5853 5854 5855 5856 5856 5857 5858 5859 5860 5861 5862 5862 5862 5862 5862 5861 5861 5861 5861 5861 5862 5862
5822 5823 5824 5824 5825 5826 5826 5827 5828 5829 5830 5831 5833 5834 5835 5837 5838 5839 5840 5841 5843 5845 5846 5848 5848 5849 5850 5851 5852 5853 5854 5854 5855 5855 5855 5855 5855 5855 5855 5855 5855 5855 5855
5813 5815 5816 5816 5817 5818 5818 5819 5819 5820 5822 5823 5824 5826 5827 5828 5830 5831 5832 5833 5834 5836 5838 5840 5841 5842 5843 5844 5845 5846 5847 5847 5848 5848 5848 5848 5848 5848 5848 5848 5848 5848 5848
5806 5807 5807 5808 5809 5809 5810 5810 5811 5812 5813 5814 5816 5817 5818 5820 5821 5822 5823 5824 5826 5828 5829 5831 5833 5834 5835 5837 5838 5839 5839 5840 5840 5841 5841 5841 5841 5841 5841 5841 5841 5841 5841
5798 5799 5799 5799 5800 5800 5801 5802 5803 5803 5804 5805 5807 5808 5809 5811 5812 5813 5815 5816 5817 5819 5821 5822 5824 5826 5827 5828 5830 5831 5832 5833 5833 5834 5834 5834 5834 5834 5834 5834 5834 5834 5834
5790 5791 5791 5791 5792 5792 5792 5793 5793 5794 5796 5797 5798 5799 5801 5802 5804 5805 5806 5808 5809 5810 5812 5814 5816 5817 5819 5821 5822 5824 5825 5826 5827 5827 5828 5827 5827 5827 5827 5827 5827 5827 5827
5784 5784 5784 5784 5784 5784 5784 5785 5785 5786 5788 5789 5790 5791 5793 5794 5795 5797 5798 5799 5801 5802 5805 5806 5808 5809 5811 5813 5815 5817 5818 5819 5820 5821 5821 5821 5821 5820 5820 5820 5820 5820 5820
5779 5779 5779 5779 5779 5778 5778 5779 5779 5780 5781 5782 5783 5784 5785 5787 5788 5789 5790 5792 5794 5795 5797 5799 5800 5802 5804 5806 5808 5810 5811 5812 5813 5814 5814 5814 5814 5813 5813 5812 5812 5812 5812
5776 5776 5775 5775 5774 5774 5774 5774 5775 5775 5776 5776 5777 5778 5779 5781 5781 5783 5784 5786 5787 5789 5791 5792 5794 5796 5798 5800 5802 5804 5805 5806 5807 5807 5807 5807 5807 5806 5806 5806 5806 5806 5806
5774 5773 5772 5772 5772 5771 5771 5771 5771 5771 5771 5771 5772 5772 5773 5774 5775 5777 5778 5780 5782 5783 5785 5787 5788 5790 5792 5794 5796 5797 5799 5799 5800 5800 5801 5801 5800 5800 5800 5799 5799 5799 5799
5773 5771 5770 5769 5769 5768 5767 5767 5767 5767 5766 5766 5767 5767 5768 5769 5770 5771 5773 5775 5777 5778 5780 5782 5783 5785 5787 5789 5790 5792 5793 5794 5794 5795 5794 5794 5794 5794 5793 5793 5793 5792 5792
5772 5770 5768 5767 5766 5764 5764 5763 5762 5762 5762 5762 5762 5762 5762 5763 5764 5766 5768 5769 5771 5773 5775 5777 5779 5780 5782 5783 5785 5786 5787 5788 5788 5788 5788 5788 5788 5788 5787 5787 5786 5786 5785
5772 5769 5767 5765 5763 5761 5760 5759 5758 5757 5757 5756 5756 5756 5757 5758 5759 5761 5762 5764 5766 5768 5770 5772 5774 5775 5777 5778 5780 5781 5782 5782 5783 5783 5783 5783 5782 5782 5782 5781 5780 5780 5779
5772 5769 5766 5763 5761 5758 5756 5755 5753 5752 5751 5751 5750 5750 5751 5752 5754 5756 5758 5759 5761 5763 5765 5767 5769 5770 5772 5774 5775 5776 5777 5778 5778 5778 5778 5778 5777 5777 5776 5775 5775 5774 5773
5772 5769 5765 5762 5758 5756 5753 5751 5749 5748 5747 5746 5745 5745 5746 5747 5749 5751 5753 5755 5757 5759 5761 5763 5765 5766 5768 5770 5771 5772 5773 5773 5774 5774 5773 5773 5773 5772 5772 5771 5770 5769 5768